Downstream station:
SHEF ID: BGCO2 Big Cabin Creek near Big Cabin,
STATION TYPE:
Regulating: Stage = 34.00, Flow = 15636
PRECIP STAGE STAGE(2) RIV-FLOW BAT-LOAD
in ft ft cfs volt
Ccp-Rev Ccp-Rev Ccp-Rev Ccp-Rev Ccp-Rev
(US/Central)
03/30 00:00 0.00 13.48 13.52 126 12.81
03/30 01:00 0.00 13.47 13.44 124 12.81
03/30 02:00 0.00 13.47 13.52 124 12.81
03/30 03:00 0.00 13.48 13.51 126 12.81
03/30 04:00 0.00 13.46 13.50 123 12.81
03/30 05:00 0.00 13.46 13.49 123 12.81
03/30 06:00 0.00 13.46 13.48 123 12.81
03/30 07:00 0.00 13.45 13.48 121 12.81
03/30 08:00 0.00 13.45 13.47 121 12.65
03/30 09:00 0.00 13.44 13.46 120 12.81
03/30 10:00 0.00 13.43 13.45 118 12.97
03/30 11:00 0.00 13.43 13.44 118 13.13
03/30 12:00 0.00 13.42 13.43 117 13.21
03/30 13:00 0.00 13.41 13.42 115 13.21
03/30 14:00 0.00 13.42 13.43 117 13.21
03/30 15:00 0.00 13.41 13.43 115 13.13
03/30 16:00 0.00 13.40 13.43 113 12.97
03/30 17:00 0.00 13.40 13.43 113 12.97
03/30 18:00 0.00 13.38 13.42 110 12.97
03/30 19:00 0.00 13.39 13.42 112 12.89
03/30 20:00 0.00 13.38 13.40 110 12.89
03/30 21:00 0.00 13.38 13.40 110 12.81
03/30 22:00 0.00 13.36 13.37 107 12.81
03/30 23:00 0.00 13.36 13.39 107 12.81